Location: Goettingen
(51.5300°N, 9.9433°E)
Time: 05:55:42
(UTC+02:00)

ISS - Pass Details

Date: 28 March 2020
Orbit: 417 x 423 km, 51.6° (Epoch: 29 March)

Event Time Altitude Azimuth Distance (km) Brightness Sun altitude
Rises 21:29:45 0° 284° (WNW) 2,363 1.1 -23.7°
Reaches altitude 10° 21:31:53 10° 278° (W) 1,498 -0.2 -23.9°
Enters shadow 21:33:40 27° 262° (W) 848 -1.9 -24.1°
